Volver al catálogo

CHECKMATE 4

ActivoMilitarPO
NORAD 56164·PAYLOAD·🇺🇸 United States

Lanzado Apr 2, 2023 desde Vandenberg Space Force Base

Loading…

Próximos Pases (próximas 24 horas)

TLE

ActualizadoSource: Space-Track

Época: Sep 14, 2026, 05:37 UTC

1 56164U 23050C   26257.23463849  .00000054  00000-0  37950-4 0  9990
2 56164  81.0052 346.4452 0006667  97.7070 262.4844 13.84820958174463

Sigue CHECKMATE 4 en tiempo real con AllMySat

Download on the App Store